Location: Newark
(34.1333°N, 7.9667°W)
Time: 16:38:51
(UTC+00:00)

Transit 2A - Pass Details

Date: 22 June 2021
Orbit: 599 x 960 km, 66.7° (Epoch: 22 July)

Event Time Altitude Azimuth Distance (km) Brightness Sun altitude
Rises 15:53:48 0° 207° (SSW) 2,889 9.3 45.4°
Reaches altitude 10° 15:56:05 10° 208° (SSW) 1,959 8.5 44.9°
Maximum altitude 16:00:26 81° 295° (WNW) 610 6.6 44.0°
Drops below altitude 10° 16:04:46 10° 24° (NNE) 1,946 8.0 43.1°
Sets 16:07:02 0° 26° (NNE) 2,867 8.8 42.6°
